QPF
0.03 0.04 0.04 0.03 0.03 0.02 0.02 0.02 0.01 0.00 0.00 0.00 0.01 0.00 0.01 0.01 0.02 0.02 0.02 0.03 0.03 0.03 0.02 0.01 0.02 0.01 0.01 0.01 0.01 0.01 0.01 0.01 0.01 0.00 0.00 0.00 0.01 0.01
0.04 0.04 0.03 0.03 0.03 0.03 0.03 0.03 0.02 0.02 0.01 0.01 0.01 0.01 0.01 0.03 0.03 0.02 0.03 0.03 0.03 0.03 0.02 0.02 0.02 0.02 0.02 0.02 0.01 0.01 0.01 0.01 0.00 0.00 0.00 0.00 0.00 0.00
0.05 0.04 0.04 0.04 0.04 0.04 0.04 0.03 0.03 0.03 0.02 0.02 0.02 0.02 0.02 0.03 0.03 0.03 0.03 0.03 0.03 0.03 0.02 0.02 0.02 0.01 0.01 0.01 0.01 0.01 0.01 0.01 0.01 0.00 0.00 0.00 0.00 0.00
0.05 0.05 0.04 0.04 0.04 0.05 0.06 0.06 0.05 0.05 0.04 0.04 0.04 0.03 0.02 0.02 0.03 0.03 0.03 0.03 0.03 0.03 0.03 0.02 0.02 0.01 0.01 0.01 0.01 0.01 0.01 0.01 0.01 0.01 0.00 0.01 0.01 0.01
0.09 0.10 0.09 0.07 0.04 0.05 0.05 0.06 0.07 0.07 0.07 0.07 0.06 0.05 0.05 0.05 0.06 0.06 0.06 0.06 0.06 0.06 0.06 0.05 0.04 0.03 0.03 0.03 0.03 0.03 0.02 0.02 0.01 0.01 0.01 0.01 0.00 0.00
0.10 0.10 0.10 0.09 0.07 0.06 0.05 0.06 0.07 0.08 0.08 0.09 0.09 0.08 0.08 0.08 0.09 0.10 0.10 0.09 0.08 0.08 0.07 0.06 0.06 0.06 0.05 0.05 0.04 0.04 0.03 0.02 0.01 0.01 0.00 0.00 0.00 0.00
0.11 0.11 0.11 0.12 0.11 0.10 0.09 0.08 0.09 0.08 0.08 0.08 0.09 0.09 0.09 0.08 0.09 0.10 0.10 0.10 0.10 0.09 0.07 0.08 0.08 0.07 0.06 0.05 0.04 0.04 0.03 0.03 0.02 0.01 0.00 0.00 0.00 0.00
0.17 0.16 0.16 0.16 0.16 0.15 0.15 0.15 0.16 0.16 0.16 0.14 0.13 0.12 0.12 0.11 0.10 0.08 0.08 0.07 0.07 0.06 0.06 0.06 0.05 0.05 0.04 0.03 0.03 0.02 0.02 0.01 0.01 0.01 0.00 0.00 0.00 0.00
0.14 0.13 0.13 0.16 0.15 0.14 0.15 0.16 0.15 0.15 0.12 0.10 0.09 0.08 0.07 0.07 0.07 0.07 0.07 0.06 0.07 0.06 0.06 0.06 0.04 0.04 0.03 0.02 0.02 0.01 0.01 0.01 0.01 0.00 0.00 0.00 0.00 0.00
0.12 0.12 0.14 0.14 0.13 0.12 0.12 0.11 0.08 0.07 0.05 0.04 0.04 0.04 0.04 0.04 0.05 0.06 0.06 0.06 0.06 0.06 0.06 0.07 0.06 0.05 0.04 0.04 0.04 0.03 0.02 0.02 0.01 0.01 0.01 0.01 0.00 0.00
0.18 0.17 0.16 0.15 0.16 0.13 0.10 0.08 0.06 0.06 0.05 0.05 0.05 0.04 0.04 0.04 0.06 0.06 0.07 0.07 0.08 0.09 0.08 0.09 0.08 0.07 0.06 0.05 0.03 0.03 0.03 0.03 0.03 0.02 0.02 0.01 0.01 0.01
0.13 0.15 0.16 0.15 0.15 0.14 0.13 0.13 0.11 0.09 0.07 0.06 0.06 0.05 0.04 0.04 0.04 0.04 0.05 0.06 0.07 0.08 0.07 0.07 0.06 0.06 0.06 0.05 0.04 0.04 0.03 0.03 0.02 0.02 0.01 0.01 0.01 0.01
0.09 0.09 0.11 0.13 0.13 0.12 0.10 0.09 0.10 0.10 0.09 0.09 0.08 0.07 0.06 0.06 0.06 0.06 0.06 0.07 0.07 0.07 0.06 0.05 0.05 0.04 0.04 0.04 0.03 0.02 0.02 0.01 0.01 0.01 0.01 0.00 0.00 0.00
0.07 0.07 0.08 0.10 0.09 0.08 0.06 0.06 0.07 0.08 0.08 0.09 0.09 0.09 0.09 0.09 0.08 0.08 0.07 0.06 0.05 0.04 0.03 0.02 0.02 0.02 0.02 0.02 0.02 0.01 0.01 0.01 0.00 0.00 0.00 0.00 0.00 0.00
0.05 0.06 0.07 0.07 0.06 0.06 0.06 0.07 0.07 0.07 0.07 0.07 0.07 0.07 0.07 0.06 0.05 0.04 0.03 0.03 0.02 0.02 0.01 0.01 0.01 0.01 0.01 0.01 0.01 0.00 0.00 0.00 0.00 0.00 0.00 0.00 0.00 0.00
0.05 0.06 0.06 0.06 0.06 0.06 0.06 0.06 0.05 0.05 0.05 0.05 0.05 0.05 0.04 0.03 0.02 0.02 0.01 0.01 0.01 0.01 0.01 0.00 0.00 0.00 0.00 0.00 0.00 0.00 0.00 0.00 0.00 0.00 0.00 0.00 0.00 0.00
0.07 0.08 0.08 0.08 0.07 0.06 0.06 0.05 0.05 0.04 0.04 0.04 0.03 0.03 0.02 0.02 0.01 0.01 0.00 0.00 0.00 0.00 0.00 0.00 0.00 0.00 0.00 0.00 0.00 0.00 0.00 0.00 0.00 0.00 0.00 0.00 0.00 0.00
0.09 0.09 0.09 0.09 0.08 0.08 0.08 0.07 0.06 0.04 0.03 0.02 0.02 0.01 0.01 0.01 0.00 0.00 0.00 0.00 0.00 0.00 0.00 0.00 0.00 0.00 0.00 0.00 0.00 0.00 0.00 0.00 0.00 0.00 0.00 0.00 0.00 0.00
0.07 0.08 0.09 0.09 0.09 0.09 0.08 0.07 0.05 0.04 0.02 0.02 0.01 0.01 0.01 0.00 0.00 0.00 0.00 0.00 0.00 0.00 0.00 0.00 0.00 0.00 0.00 0.00 0.00 0.00 0.00 0.00 0.00 0.00 0.00 0.00 0.00 0.00
0.05 0.05 0.05 0.06 0.06 0.05 0.05 0.04 0.03 0.03 0.02 0.01 0.01 0.01 0.00 0.00 0.00 0.00 0.00 0.00 0.00 0.00 0.00 0.00 0.00 0.00 0.00 0.00 0.00 0.00 0.01 0.01 0.01 0.01 0.00 0.00 0.00 0.00
0.05 0.05 0.05 0.05 0.04 0.04 0.03 0.03 0.02 0.02 0.01 0.01 0.00 0.00 0.00 0.00 0.00 0.00 0.00 0.00 0.00 0.00 0.00 0.00 0.00 0.00 0.00 0.00 0.00 0.00 0.01 0.01 0.01 0.01 0.00 0.00 0.01 0.02
0.05 0.06 0.05 0.04 0.04 0.03 0.02 0.02 0.01 0.01 0.00 0.00 0.00 0.00 0.00 0.00 0.00 0.00 0.00 0.00 0.00 0.00 0.00 0.00 0.00 0.00 0.00 0.00 0.00 0.00 0.01 0.01 0.01 0.01 0.01 0.01 0.02 0.02
0.06 0.05 0.04 0.03 0.03 0.02 0.02 0.01 0.01 0.00 0.00 0.00 0.00 0.00 0.00 0.00 0.00 0.00 0.00 0.00 0.00 0.00 0.00 0.00 0.00 0.00 0.00 0.00 0.00 0.00 0.00 0.00 0.00 0.00 0.00 0.01 0.01 0.01
MSLP
1018.20 1018.53 1018.86 1019.17 1019.46 1019.71 1019.93 1020.13 1020.31 1020.47 1020.63 1020.77 1020.91 1021.03 1021.12 1021.20 1021.27 1021.35 1021.46 1021.62 1021.85 1022.13 1022.48 1022.85 1023.21 1023.53 1023.79 1023.95 1024.01 1023.99 1023.91 1023.80 1023.70 1023.63 1023.59 1023.58 1023.59 1023.58
1017.47 1017.83 1018.17 1018.50 1018.81 1019.09 1019.37 1019.64 1019.91 1020.19 1020.47 1020.74 1020.99 1021.20 1021.38 1021.51 1021.62 1021.71 1021.82 1021.98 1022.19 1022.48 1022.82 1023.20 1023.58 1023.93 1024.21 1024.40 1024.49 1024.50 1024.44 1024.35 1024.26 1024.20 1024.16 1024.15 1024.15 1024.12
1016.59 1017.00 1017.39 1017.75 1018.10 1018.45 1018.79 1019.15 1019.53 1019.93 1020.34 1020.74 1021.11 1021.43 1021.70 1021.90 1022.06 1022.18 1022.31 1022.47 1022.68 1022.96 1023.29 1023.67 1024.05 1024.41 1024.70 1024.90 1025.01 1025.03 1024.98 1024.90 1024.81 1024.74 1024.70 1024.67 1024.65 1024.61
1015.61 1016.08 1016.54 1016.98 1017.41 1017.83 1018.27 1018.73 1019.22 1019.74 1020.27 1020.80 1021.29 1021.72 1022.08 1022.36 1022.57 1022.73 1022.88 1023.05 1023.26 1023.54 1023.86 1024.23 1024.61 1024.95 1025.24 1025.44 1025.54 1025.55 1025.50 1025.40 1025.30 1025.21 1025.15 1025.11 1025.06 1024.99
1014.61 1015.18 1015.73 1016.27 1016.79 1017.32 1017.86 1018.43 1019.04 1019.67 1020.32 1020.95 1021.55 1022.07 1022.52 1022.86 1023.13 1023.33 1023.51 1023.69 1023.91 1024.17 1024.49 1024.84 1025.20 1025.53 1025.79 1025.97 1026.05 1026.04 1025.96 1025.84 1025.71 1025.59 1025.50 1025.43 1025.36 1025.26
1013.75 1014.41 1015.07 1015.71 1016.35 1016.99 1017.64 1018.32 1019.03 1019.76 1020.50 1021.22 1021.90 1022.50 1023.00 1023.40 1023.70 1023.94 1024.14 1024.34 1024.56 1024.82 1025.12 1025.46 1025.79 1026.09 1026.32 1026.46 1026.51 1026.46 1026.35 1026.19 1026.03 1025.87 1025.74 1025.64 1025.54 1025.42
1013.14 1013.89 1014.65 1015.41 1016.15 1016.90 1017.66 1018.44 1019.23 1020.04 1020.85 1021.62 1022.34 1022.98 1023.51 1023.94 1024.27 1024.53 1024.74 1024.94 1025.16 1025.42 1025.71 1026.02 1026.32 1026.59 1026.78 1026.89 1026.90 1026.81 1026.66 1026.46 1026.25 1026.05 1025.88 1025.74 1025.61 1025.47
1012.92 1013.74 1014.58 1015.42 1016.26 1017.10 1017.95 1018.80 1019.65 1020.51 1021.35 1022.14 1022.87 1023.51 1024.05 1024.48 1024.81 1025.07 1025.28 1025.48 1025.69 1025.93 1026.20 1026.48 1026.76 1026.99 1027.15 1027.22 1027.19 1027.07 1026.88 1026.64 1026.39 1026.16 1025.95 1025.77 1025.62 1025.46
1013.13 1013.98 1014.87 1015.77 1016.68 1017.58 1018.48 1019.37 1020.26 1021.13 1021.96 1022.75 1023.46 1024.07 1024.58 1024.99 1025.30 1025.54 1025.74 1025.92 1026.12 1026.34 1026.59 1026.84 1027.09 1027.29 1027.42 1027.46 1027.40 1027.25 1027.03 1026.76 1026.48 1026.21 1025.97 1025.76 1025.57 1025.40
1013.77 1014.62 1015.52 1016.44 1017.37 1018.29 1019.21 1020.11 1020.99 1021.84 1022.65 1023.40 1024.06 1024.63 1025.10 1025.47 1025.74 1025.96 1026.13 1026.29 1026.46 1026.66 1026.87 1027.10 1027.32 1027.49 1027.60 1027.61 1027.54 1027.37 1027.13 1026.84 1026.54 1026.24 1025.96 1025.72 1025.51 1025.31
1014.77 1015.58 1016.44 1017.34 1018.25 1019.16 1020.05 1020.93 1021.78 1022.59 1023.35 1024.04 1024.65 1025.17 1025.59 1025.91 1026.15 1026.33 1026.48 1026.61 1026.75 1026.92 1027.11 1027.30 1027.49 1027.64 1027.72 1027.73 1027.64 1027.46 1027.21 1026.91 1026.59 1026.27 1025.97 1025.70 1025.45 1025.23
1016.02 1016.75 1017.55 1018.38 1019.24 1020.09 1020.94 1021.76 1022.55 1023.31 1024.01 1024.64 1025.20 1025.66 1026.04 1026.32 1026.54 1026.69 1026.81 1026.93 1027.04 1027.18 1027.34 1027.50 1027.65 1027.78 1027.84 1027.83 1027.74 1027.56 1027.30 1027.00 1026.67 1026.32 1025.99 1025.69 1025.41 1025.15
1017.39 1018.03 1018.74 1019.48 1020.26 1021.03 1021.80 1022.55 1023.28 1023.96 1024.60 1025.18 1025.69 1026.11 1026.46 1026.73 1026.93 1027.07 1027.18 1027.27 1027.37 1027.48 1027.60 1027.73 1027.85 1027.95 1027.99 1027.96 1027.86 1027.68 1027.42 1027.11 1026.77 1026.40 1026.05 1025.70 1025.38 1025.07
1018.77 1019.32 1019.93 1020.58 1021.25 1021.94 1022.62 1023.29 1023.93 1024.55 1025.13 1025.66 1026.13 1026.53 1026.87 1027.13 1027.33 1027.48 1027.59 1027.68 1027.76 1027.85 1027.94 1028.03 1028.11 1028.17 1028.18 1028.13 1028.01 1027.82 1027.56 1027.24 1026.88 1026.50 1026.11 1025.73 1025.36 1025.00
1020.10 1020.56 1021.07 1021.63 1022.21 1022.80 1023.39 1023.97 1024.53 1025.08 1025.61 1026.10 1026.54 1026.94 1027.28 1027.55 1027.77 1027.93 1028.05 1028.14 1028.21 1028.27 1028.33 1028.38 1028.42 1028.43 1028.41 1028.33 1028.18 1027.98 1027.70 1027.37 1027.00 1026.59 1026.17 1025.75 1025.33 1024.92
1021.32 1021.71 1022.15 1022.62 1023.11 1023.61 1024.11 1024.61 1025.11 1025.59 1026.07 1026.53 1026.95 1027.34 1027.69 1027.98 1028.22 1028.40 1028.54 1028.63 1028.69 1028.73 1028.75 1028.76 1028.74 1028.71 1028.64 1028.52 1028.35 1028.11 1027.82 1027.48 1027.08 1026.66 1026.21 1025.74 1025.28 1024.82
1022.41 1022.75 1023.14 1023.55 1023.98 1024.40 1024.83 1025.25 1025.68 1026.11 1026.54 1026.96 1027.37 1027.76 1028.11 1028.42 1028.68 1028.87 1029.02 1029.11 1029.16 1029.17 1029.15 1029.11 1029.05 1028.96 1028.84 1028.68 1028.47 1028.21 1027.89 1027.53 1027.12 1026.67 1026.19 1025.70 1025.20 1024.70
1023.35 1023.68 1024.04 1024.42 1024.79 1025.16 1025.53 1025.90 1026.27 1026.64 1027.03 1027.42 1027.80 1028.18 1028.53 1028.84 1029.10 1029.31 1029.45 1029.54 1029.57 1029.55 1029.50 1029.41 1029.30 1029.16 1028.98 1028.78 1028.53 1028.23 1027.90 1027.51 1027.08 1026.61 1026.12 1025.60 1025.07 1024.54
1024.15 1024.48 1024.84 1025.19 1025.54 1025.88 1026.21 1026.53 1026.85 1027.18 1027.53 1027.88 1028.24 1028.59 1028.92 1029.22 1029.48 1029.67 1029.81 1029.88 1029.89 1029.84 1029.75 1029.63 1029.47 1029.28 1029.06 1028.81 1028.52 1028.20 1027.83 1027.43 1026.98 1026.50 1025.98 1025.45 1024.90 1024.35
1024.79 1025.15 1025.51 1025.86 1026.20 1026.52 1026.83 1027.12 1027.41 1027.71 1028.01 1028.33 1028.65 1028.97 1029.28 1029.55 1029.78 1029.96 1030.07 1030.12 1030.11 1030.04 1029.92 1029.76 1029.56 1029.33 1029.07 1028.78 1028.46 1028.11 1027.72 1027.29 1026.83 1026.33 1025.80 1025.25 1024.69 1024.13
1025.28 1025.66 1026.04 1026.40 1026.74 1027.06 1027.36 1027.64 1027.91 1028.18 1028.46 1028.74 1029.02 1029.31 1029.57 1029.81 1030.01 1030.16 1030.24 1030.27 1030.24 1030.14 1030.00 1029.82 1029.59 1029.33 1029.05 1028.73 1028.38 1028.00 1027.58 1027.13 1026.64 1026.12 1025.58 1025.02 1024.45 1023.87
1025.62 1026.02 1026.41 1026.78 1027.14 1027.46 1027.76 1028.04 1028.31 1028.57 1028.82 1029.08 1029.33 1029.57 1029.80 1030.00 1030.16 1030.27 1030.34 1030.34 1030.29 1030.18 1030.03 1029.83 1029.59 1029.31 1029.01 1028.66 1028.29 1027.88 1027.43 1026.95 1026.43 1025.89 1025.33 1024.76 1024.17 1023.59
1025.83 1026.23 1026.63 1027.01 1027.38 1027.72 1028.03 1028.32 1028.59 1028.85 1029.09 1029.32 1029.55 1029.76 1029.95 1030.11 1030.24 1030.32 1030.36 1030.35 1030.28 1030.17 1030.01 1029.81 1029.56 1029.28 1028.96 1028.59 1028.19 1027.75 1027.27 1026.76 1026.21 1025.64 1025.06 1024.46 1023.87 1023.28
Thickness
5717 5715 5714 5713 5712 5711 5709 5707 5701 5694 5693 5695 5696 5697 5696 5695 5694 5693 5691 5689 5686 5684 5681 5678 5675 5672 5670 5667 5665 5662 5660 5658 5655 5653 5651 5649 5647 5646
5715 5713 5711 5710 5709 5707 5706 5704 5702 5698 5691 5691 5690 5690 5690 5690 5688 5686 5684 5682 5680 5677 5674 5671 5668 5665 5662 5660 5657 5654 5651 5648 5646 5643 5641 5639 5637 5636
5712 5710 5708 5707 5706 5704 5702 5700 5698 5695 5689 5686 5684 5683 5682 5681 5680 5678 5676 5674 5671 5669 5666 5663 5660 5657 5654 5651 5648 5644 5641 5638 5635 5632 5630 5628 5626 5625
5708 5706 5704 5703 5701 5699 5698 5696 5694 5691 5687 5681 5677 5675 5674 5673 5671 5670 5667 5665 5662 5659 5657 5654 5650 5647 5644 5641 5637 5634 5630 5627 5624 5621 5618 5616 5614 5612
5705 5702 5700 5698 5696 5695 5693 5691 5689 5687 5683 5678 5672 5668 5665 5664 5662 5659 5656 5654 5652 5649 5646 5642 5639 5636 5632 5629 5625 5622 5619 5615 5612 5609 5606 5603 5601 5598
5700 5698 5697 5695 5692 5690 5688 5685 5683 5679 5675 5671 5666 5661 5657 5655 5653 5649 5645 5642 5639 5637 5633 5630 5626 5623 5620 5617 5613 5610 5606 5602 5599 5596 5592 5589 5587 5585
5694 5692 5691 5689 5687 5686 5683 5680 5676 5672 5667 5662 5657 5652 5649 5646 5643 5640 5635 5631 5626 5623 5620 5616 5613 5610 5606 5603 5600 5596 5592 5588 5585 5581 5578 5575 5572 5570
5687 5684 5682 5680 5679 5677 5674 5671 5669 5664 5659 5654 5649 5645 5641 5637 5634 5631 5626 5622 5616 5610 5608 5603 5599 5595 5591 5588 5585 5582 5578 5574 5570 5567 5563 5560 5557 5554
5681 5678 5675 5672 5670 5667 5663 5660 5657 5654 5651 5648 5642 5637 5632 5629 5625 5620 5615 5611 5604 5598 5595 5590 5585 5581 5577 5574 5571 5567 5563 5559 5556 5552 5549 5545 5542 5539
5672 5670 5666 5662 5660 5658 5653 5648 5643 5640 5639 5636 5631 5626 5622 5618 5615 5610 5604 5597 5591 5586 5583 5577 5571 5567 5563 5558 5555 5552 5548 5544 5540 5537 5534 5530 5527 5524
5661 5659 5656 5653 5649 5647 5643 5636 5630 5625 5622 5620 5616 5612 5608 5605 5601 5597 5592 5588 5580 5572 5566 5563 5556 5552 5548 5543 5540 5536 5533 5529 5525 5521 5518 5515 5511 5509
5651 5648 5645 5642 5638 5635 5631 5626 5619 5612 5609 5606 5601 5597 5593 5589 5586 5582 5578 5573 5567 5559 5552 5548 5542 5538 5535 5529 5525 5521 5518 5514 5510 5507 5503 5500 5497 5494
5641 5636 5632 5630 5626 5623 5620 5615 5608 5601 5596 5592 5587 5582 5578 5574 5569 5565 5561 5557 5552 5545 5538 5534 5529 5523 5519 5515 5510 5506 5502 5499 5496 5493 5490 5486 5483 5479
5632 5627 5622 5618 5614 5611 5606 5601 5595 5590 5584 5579 5573 5568 5563 5558 5553 5549 5545 5541 5536 5531 5525 5520 5515 5510 5506 5502 5498 5494 5490 5486 5482 5479 5476 5473 5470 5467
5621 5616 5611 5607 5602 5598 5593 5588 5584 5578 5573 5567 5561 5555 5549 5544 5540 5536 5531 5527 5522 5517 5512 5507 5502 5497 5493 5490 5486 5482 5478 5475 5471 5467 5463 5461 5458 5455
5609 5604 5599 5594 5590 5584 5579 5575 5571 5566 5560 5554 5548 5542 5537 5533 5528 5524 5519 5514 5510 5505 5500 5495 5491 5486 5483 5478 5474 5471 5467 5463 5460 5456 5453 5450 5448 5445
5599 5593 5587 5582 5577 5572 5566 5561 5557 5553 5547 5541 5536 5531 5526 5521 5515 5510 5506 5501 5497 5493 5488 5484 5480 5476 5472 5468 5466 5462 5458 5454 5450 5446 5443 5442 5439 5436
5590 5583 5576 5571 5566 5561 5555 5549 5544 5539 5534 5530 5525 5520 5515 5510 5504 5499 5494 5490 5485 5481 5476 5472 5469 5467 5464 5461 5455 5452 5449 5446 5442 5438 5435 5433 5432 5430
5578 5572 5566 5560 5555 5549 5544 5539 5533 5527 5523 5518 5514 5509 5503 5498 5493 5488 5483 5479 5474 5470 5466 5462 5458 5456 5455 5453 5449 5443 5440 5438 5435 5433 5430 5426 5424 5423
5566 5560 5555 5549 5544 5539 5533 5528 5522 5517 5512 5507 5503 5498 5493 5488 5483 5478 5473 5469 5465 5461 5458 5454 5451 5447 5444 5442 5439 5437 5434 5430 5429 5427 5425 5421 5419 5416
5553 5548 5543 5539 5534 5528 5523 5517 5512 5507 5502 5497 5492 5487 5483 5478 5474 5469 5464 5459 5456 5454 5451 5448 5443 5439 5435 5433 5433 5433 5430 5426 5422 5419 5418 5417 5416 5415
5543 5538 5533 5528 5523 5518 5513 5508 5502 5497 5492 5488 5483 5478 5474 5469 5465 5461 5457 5453 5450 5446 5443 5441 5437 5435 5433 5431 5430 5428 5426 5423 5420 5416 5413 5410 5408 5408
5533 5528 5523 5518 5513 5508 5504 5499 5494 5489 5484 5480 5475 5470 5466 5461 5457 5453 5450 5447 5444 5441 5438 5436 5434 5431 5428 5426 5424 5423 5421 5420 5417 5415 5413 5409 5405 5402